CW1459 Weather Reports


time (UTC)temp
F
wind
direction
speed
knots
gust
knots
rain 1hr
in
rain 24hr
in
rain mn
in
humidity
%
barometer
mb
20260508113332 43 186 1.7 4.3 0.00 0.00 0.00 87 1013.3
20260508112312 41 84 0.0 1.7 0.00 0.00 0.00 86 1013.4
20260508111317 40 84 0.0 0.9 0.00 0.00 0.00 86 1013.3
20260508110351 39 84 0.0 0.9 0.00 0.00 0.00 86 1013.1
20260508105336 39 84 0.0 1.7 0.00 0.00 0.00 86 1013.0
20260508104312 38 84 0.0 0.9 0.00 0.00 0.00 85 1012.9
20260508103337 38 84 0.0 0.0 0.00 0.00 0.00 85 1012.8
20260508102312 38 84 0.0 1.7 0.00 0.00 0.00 84 1012.7
20260508101335 38 84 0.0 0.0 0.00 0.00 0.00 83 1012.6
20260508100314 38 84 0.0 0.9 0.00 0.00 0.00 82 1012.6
20260508095312 39 84 0.0 0.0 0.00 0.00 0.00 81 1012.4
20260508094311 39 84 0.0 0.9 0.00 0.00 0.00 81 1012.3
20260508093334 40 84 0.0 1.7 0.00 0.00 0.00 82 1012.3
20260508092317 39 84 1.7 1.7 0.00 0.00 0.00 82 1012.4
20260508091333 39 84 0.0 1.7 0.00 0.00 0.00 81 1012.5
20260508090321 40 84 0.0 0.0 0.00 0.00 0.00 79 1012.4
20260508085326 41 84 0.0 0.0 0.00 0.00 0.00 78 1012.3
20260508084311 41 84 0.0 0.9 0.00 0.00 0.00 76 1012.1
20260508083340 41 84 0.0 0.0 0.00 0.00 0.00 76 1012.0
20260508082335 42 84 0.0 0.9 0.00 0.00 0.00 75 1011.9
20260508081323 42 84 0.9 0.9 0.00 0.00 0.00 74 1012.0
20260508080319 43 84 0.0 0.0 0.00 0.00 0.00 73 1012.1
20260508075321 43 84 0.0 1.7 0.00 0.00 0.00 72 1012.0
20260508074345 44 84 0.9 1.7 0.00 0.00 0.00 71 1012.0
20260508073337 44 84 0.9 1.7 0.00 0.00 0.00 70 1011.9
20260508072316 45 84 0.0 2.6 0.00 0.00 0.00 69 1011.8
20260508071336 45 55 0.9 2.6 0.00 0.00 0.00 70 1011.7
20260508070334 45 61 1.7 4.3 0.00 0.00 0.00 70 1011.6
20260508065318 46 69 0.0 1.7 0.00 0.00 0.00 67 1011.7
20260508064339 47 67 0.0 1.7 0.00 0.00 0.00 65 1011.7
20260508063340 48 61 0.0 1.7 0.00 0.00 0.00 63 1011.7
20260508062317 49 15 0.9 3.5 0.00 0.00 0.00 61 1011.7
20260508061339 49 5 1.7 7.8 0.00 0.00 0.00 60 1011.6
20260508060337 49 351 2.6 5.2 0.00 0.00 0.00 61 1011.6
20260508055329 49 10 0.9 3.5 0.00 0.00 0.00 61 1011.5
20260508054340 49 360 1.7 7.8 0.00 0.00 0.00 61 1011.5
20260508053339 48 17 2.6 7.0 0.00 0.00 0.00 62 1011.4
20260508052340 48 320 0.9 2.6 0.00 0.00 0.00 61 1011.3
20260508051318 48 136 0.9 1.7 0.00 0.00 0.00 62 1011.2
20260508050316 49 123 0.9 2.6 0.00 0.00 0.00 61 1011.0
20260508045330 50 80 0.9 1.7 0.00 0.00 0.00 59 1010.9
20260508044315 50 96 0.9 1.7 0.00 0.00 0.00 58 1010.8
20260508043341 50 351 1.7 3.5 0.00 0.00 0.00 57 1010.6
20260508042334 51 220 0.0 2.6 0.00 0.00 0.00 59 1010.5
20260508041338 51 161 0.9 1.7 0.00 0.00 0.00 58 1010.3
20260508040323 51 152 0.9 2.6 0.00 0.00 0.00 57 1010.1
20260508035322 52 149 1.7 2.6 0.00 0.00 0.00 56 1009.9
20260508034317 51 169 0.9 1.7 0.00 0.00 0.00 56 1009.9
20260508033341 51 169 0.9 1.7 0.00 0.00 0.00 57 1009.8
20260508032315 51 169 0.0 1.7 0.00 0.00 0.00 57 1009.6
20260508031317 52 157 0.9 2.6 0.00 0.00 0.00 56 1009.6
20260508030319 52 157 0.9 1.7 0.00 0.00 0.00 55 1009.6
20260508025344 53 185 1.7 1.7 0.00 0.00 0.00 56 1009.5
20260508024332 53 311 0.0 1.7 0.00 0.00 0.00 54 1009.5
20260508023336 54 294 0.0 1.7 0.00 0.00 0.00 53 1009.4
20260508022320 54 294 0.0 1.7 0.00 0.00 0.00 52 1009.4
20260508021332 55 294 0.0 0.9 0.00 0.00 0.00 50 1009.3
20260508020400 56 302 0.0 4.3 0.00 0.00 0.00 49 1009.1
20260508015319 57 314 1.7 4.3 0.00 0.00 0.00 48 1009.1
20260508014314 57 339 2.6 3.5 0.00 0.00 0.00 46 1009.0
20260508013328 58 326 3.5 5.2 0.00 0.00 0.00 45 1008.8
20260508012334 58 322 0.9 5.2 0.00 0.00 0.00 45 1008.6
20260508011338 58 302 2.6 3.5 0.00 0.00 0.00 46 1008.5
20260508010339 59 47 0.0 2.6 0.00 0.00 0.00 46 1008.3
20260508005337 60 348 1.7 4.3 0.00 0.00 0.00 42 1008.1
20260508004322 61 351 1.7 5.2 0.00 0.00 0.00 42 1008.1
20260508003328 61 309 2.6 5.2 0.00 0.00 0.00 42 1007.9
20260508002315 61 296 3.5 6.1 0.00 0.00 0.00 41 1007.7
20260508001318 61 300 4.3 7.0 0.00 0.00 0.00 40 1007.6
20260508000339 62 328 4.3 8.7 0.00 0.00 0.00 40 1007.4
20260507235322 63 306 4.3 8.7 0.00 0.01 0.00 39 1007.4
20260507234316 63 330 4.3 7.8 0.00 0.01 0.00 39 1007.3
20260507233332 63 297 4.3 9.6 0.00 0.01 0.00 39 1007.2
20260507232328 63 317 2.6 7.8 0.00 0.01 0.00 41 1007.0
20260507231315 64 320 3.5 7.8 0.00 0.01 0.00 40 1006.9
20260507230333 63 323 5.2 9.6 0.00 0.01 0.00 40 1006.7
20260507225316 63 111 0.9 1.7 0.00 0.01 0.00 51 1006.6
20260507224332 63 111 0.0 1.7 0.00 0.01 0.00 52 1006.4
20260507223332 64 107 0.0 1.7 0.00 0.01 0.00 49 1006.3
20260507222318 64 100 1.7 1.7 0.00 0.01 0.00 45 1006.2
20260507221318 64 63 0.9 1.7 0.00 0.01 0.00 39 1006.2
20260507220333 65 5 0.0 3.5 0.00 0.01 0.00 39 1006.1
20260507215317 67 350 1.7 4.3 0.00 0.02 0.00 35 1006.1
20260507214337 69 30 2.6 7.0 0.00 0.02 0.00 34 1006.1
20260507213333 68 319 2.6 5.2 0.00 0.02 0.00 35 1006.0
20260507212316 67 306 2.6 10.4 0.00 0.02 0.00 34 1006.1
20260507211339 68 317 3.5 7.8 0.00 0.02 0.00 40 1006.2
20260507210316 68 342 3.5 7.0 0.00 0.02 0.00 37 1006.1
20260507205315 68 252 1.7 5.2 0.00 0.02 0.00 39 1006.2
20260507204335 67 321 5.2 10.4 0.00 0.02 0.00 36 1006.3
20260507203359 68 360 3.5 7.8 0.00 0.02 0.00 40 1006.5
20260507202317 68 67 1.7 10.4 0.00 0.02 0.00 42 1006.5
20260507201338 67 360 1.7 12.2 0.00 0.02 0.00 41 1006.5
20260507200339 67 351 1.7 7.8 0.00 0.02 0.00 41 1006.6
20260507195339 68 34 2.6 7.8 0.00 0.02 0.00 41 1006.8
20260507194331 67 199 0.9 7.0 0.00 0.02 0.00 41 1006.9
20260507193335 68 360 5.2 8.7 0.00 0.02 0.00 43 1007.1
20260507192336 68 333 1.7 3.5 0.00 0.02 0.00 38 1007.3
20260507191318 66 159 2.6 8.7 0.00 0.02 0.00 39 1007.4
20260507190322 67 338 3.5 7.8 0.00 0.02 0.00 41 1007.5
20260507185315 66 300 4.3 9.6 0.00 0.02 0.00 40 1007.7
20260507184318 66 325 5.2 9.6 0.00 0.02 0.00 41 1007.7
20260507183318 64 215 2.6 7.8 0.00 0.02 0.00 44 1007.9
20260507182317 64 284 2.6 7.0 0.00 0.02 0.00 46 1008.0
20260507181318 64 349 3.5 13.0 0.00 0.02 0.00 41 1008.1
20260507180319 64 320 4.3 12.2 0.00 0.02 0.00 40 1008.3
20260507175331 64 348 4.3 10.4 0.00 0.02 0.00 42 1008.4
20260507174338 64 304 3.5 9.6 0.00 0.02 0.00 43 1008.6
20260507173335 64 44 4.3 12.2 0.00 0.02 0.00 40 1008.8
20260507172337 64 315 3.5 12.2 0.00 0.02 0.00 44 1008.9
20260507171338 64 16 5.2 9.6 0.00 0.02 0.00 44 1009.0
20260507170338 63 331 2.6 7.8 0.00 0.02 0.00 47 1009.2
20260507165353 63 5 4.3 10.4 0.00 0.02 0.00 42 1009.4
20260507164337 62 351 5.2 11.3 0.00 0.02 0.00 44 1009.5
20260507163317 62 330 2.6 7.8 0.00 0.02 0.00 45 1009.6
20260507162322 61 13 1.7 8.7 0.00 0.02 0.00 48 1009.7
20260507161336 62 309 7.0 10.4 0.00 0.02 0.00 46 1009.9
20260507160331 62 340 4.3 9.6 0.00 0.02 0.00 45 1010.0
20260507155330 61 345 6.1 12.2 0.00 0.02 0.00 44 1010.1
20260507154313 60 35 3.5 8.7 0.00 0.02 0.00 45 1010.2
20260507153335 59 317 3.5 10.4 0.00 0.02 0.00 42 1010.2
20260507152315 60 5 1.7 8.7 0.00 0.02 0.00 42 1010.3
20260507151336 59 265 3.5 7.8 0.00 0.02 0.00 42 1010.5
20260507150334 60 9 3.5 10.4 0.00 0.02 0.00 42 1010.7
20260507145328 59 330 5.2 11.3 0.00 0.05 0.00 44 1010.9
20260507144331 57 342 4.3 9.6 0.00 0.05 0.00 47 1011.0
20260507143325 57 42 4.3 10.4 0.00 0.05 0.00 47 1011.0
20260507142314 57 328 4.3 9.6 0.00 0.05 0.00 48 1011.1
20260507141337 58 350 7.0 11.3 0.00 0.05 0.00 44 1011.1
20260507140351 57 21 5.2 9.6 0.00 0.05 0.00 48 1011.3
20260507135313 57 338 4.3 8.7 0.00 0.10 0.00 51 1011.5
20260507134331 57 325 5.2 10.4 0.00 0.10 0.00 48 1011.7
20260507133358 57 328 6.1 10.4 0.00 0.10 0.00 55 1011.6
20260507132317 56 342 4.3 9.6 0.00 0.10 0.00 56 1011.7
20260507131335 54 329 5.2 8.7 0.00 0.10 0.00 59 1011.7
20260507130337 54 341 5.2 9.6 0.00 0.10 0.00 56 1011.8
20260507125320 54 280 1.7 7.8 0.00 0.14 0.00 59 1011.9
20260507124312 54 344 3.5 7.0 0.00 0.14 0.00 59 1011.8
20260507123337 54 329 3.5 5.2 0.00 0.14 0.00 58 1011.7
20260507122318 53 5 2.6 7.8 0.00 0.14 0.00 61 1011.6
20260507121331 53 302 3.5 7.0 0.00 0.14 0.00 61 1011.5
20260507120312 52 309 3.5 7.0 0.00 0.14 0.00 63 1011.4
20260507115337 52 13 1.7 3.5 0.00 0.18 0.00 64 1011.5
20260507114314 52 336 2.6 4.3 0.00 0.18 0.00 64 1011.5